Time,TemperatureF,DewpointF,PressureIn,WindDirection,WindDirectionDegrees,WindSpeedMPH,WindSpeedGustMPH,Humidity,HourlyPrecipIn,Conditions,Clouds,dailyrainin,SoftwareType,DateUTC
2013-05-05 00:01:00,54.2,52.5,29.97,NE,41,2.0,3.0,94,0.00,,,0.00,Wunderground v.1.15,2013-05-05 04:01:00,
2013-05-05 00:02:00,54.2,52.5,29.97,NE,34,2.0,3.0,94,0.00,,,0.00,Wunderground v.1.15,2013-05-05 04:02:00,
2013-05-05 00:04:00,54.2,52.5,29.97,ENE,76,3.0,5.0,94,0.00,,,0.00,Wunderground v.1.15,2013-05-05 04:04:00,
2013-05-05 00:07:00,54.2,52.5,29.97,East,84,3.0,5.0,94,0.00,,,0.01,Wunderground v.1.15,2013-05-05 04:07:00,
2013-05-05 00:12:00,54.2,52.5,29.97,NE,56,3.0,3.0,94,0.00,,,0.01,Wunderground v.1.15,2013-05-05 04:12:00,
2013-05-05 00:14:00,54.2,52.5,29.97,ENE,72,3.0,4.0,94,0.00,,,0.01,Wunderground v.1.15,2013-05-05 04:14:00,
2013-05-05 00:19:00,54.3,52.6,29.98,ENE,72,3.0,6.0,94,0.00,,,0.01,Wunderground v.1.15,2013-05-05 04:19:00,
2013-05-05 00:25:00,54.3,52.6,29.97,ENE,67,2.0,3.0,94,0.00,,,0.01,Wunderground v.1.15,2013-05-05 04:25:00,
2013-05-05 00:30:00,54.3,52.6,29.97,West,281,1.0,1.0,94,0.00,,,0.01,Wunderground v.1.15,2013-05-05 04:30:00,
2013-05-05 00:36:00,54.3,52.6,29.97,West,281,0.0,1.0,94,0.00,,,0.01,Wunderground v.1.15,2013-05-05 04:36:00,
2013-05-05 00:42:00,54.3,52.6,29.97,West,281,0.0,0.0,94,0.00,,,0.02,Wunderground v.1.15,2013-05-05 04:42:00,
2013-05-05 00:48:00,54.2,52.5,29.98,NNE,15,0.0,0.0,94,0.06,,,0.03,Wunderground v.1.15,2013-05-05 04:48:00,
2013-05-05 00:54:00,54.2,52.5,29.98,North,358,0.0,1.0,94,0.06,,,0.03,Wunderground v.1.15,2013-05-05 04:54:00,
2013-05-05 01:00:00,54.2,52.8,29.98,NNE,16,0.0,0.0,95,0.08,,,0.04,Wunderground v.1.15,2013-05-05 05:00:00,
2013-05-05 01:06:00,54.1,52.7,29.98,NE,49,0.0,1.0,95,0.10,,,0.05,Wunderground v.1.15,2013-05-05 05:06:00,
2013-05-05 01:12:00,54.1,52.7,29.98,ENE,62,1.0,1.0,95,0.09,,,0.06,Wunderground v.1.15,2013-05-05 05:12:00,
2013-05-05 01:17:00,54.0,52.6,29.98,ENE,77,1.0,3.0,95,0.06,,,0.06,Wunderground v.1.15,2013-05-05 05:17:00,
2013-05-05 01:22:00,54.0,52.6,29.98,ENE,77,1.0,2.0,95,0.06,,,0.07,Wunderground v.1.15,2013-05-05 05:22:00,
2013-05-05 01:28:00,53.9,52.5,29.98,ENE,62,1.0,2.0,95,0.08,,,0.08,Wunderground v.1.15,2013-05-05 05:28:00,
2013-05-05 01:33:00,53.9,52.5,29.98,ENE,62,2.0,3.0,95,0.10,,,0.09,Wunderground v.1.15,2013-05-05 05:33:00,
2013-05-05 01:39:00,53.9,52.5,29.99,East,95,2.0,3.0,95,0.08,,,0.10,Wunderground v.1.15,2013-05-05 05:39:00,
2013-05-05 01:45:00,53.9,52.5,29.99,ESE,110,2.0,3.0,95,0.13,,,0.11,Wunderground v.1.15,2013-05-05 05:45:00,
2013-05-05 01:51:00,54.0,52.3,29.98,NNE,22,4.0,4.0,94,0.15,,,0.12,Wunderground v.1.15,2013-05-05 05:51:00,
2013-05-05 01:57:00,54.0,52.0,29.97,East,86,4.0,7.0,93,0.12,,,0.13,Wunderground v.1.15,2013-05-05 05:57:00,
2013-05-05 02:02:00,53.9,52.2,29.97,ENE,68,3.0,4.0,94,0.10,,,0.14,Wunderground v.1.15,2013-05-05 06:02:00,
2013-05-05 02:08:00,53.8,52.4,29.97,ENE,73,3.0,5.0,95,0.11,,,0.15,Wunderground v.1.15,2013-05-05 06:08:00,
2013-05-05 02:13:00,53.7,52.0,29.96,ENE,65,3.0,3.0,94,0.10,,,0.16,Wunderground v.1.15,2013-05-05 06:13:00,
2013-05-05 02:19:00,53.6,52.2,29.95,NNE,32,2.0,3.0,95,0.18,,,0.18,Wunderground v.1.15,2013-05-05 06:19:00,
2013-05-05 02:25:00,53.6,52.2,29.95,ENE,63,2.0,3.0,95,0.12,,,0.19,Wunderground v.1.15,2013-05-05 06:25:00,
2013-05-05 02:31:00,53.5,52.1,29.95,NE,56,4.0,4.0,95,0.08,,,0.20,Wunderground v.1.15,2013-05-05 06:31:00,
2013-05-05 02:36:00,53.5,52.1,29.95,East,88,4.0,4.0,95,0.08,,,0.20,Wunderground v.1.15,2013-05-05 06:36:00,
2013-05-05 02:42:00,53.5,52.1,29.95,ENE,74,4.0,4.0,95,0.06,,,0.21,Wunderground v.1.15,2013-05-05 06:42:00,
2013-05-05 02:48:00,53.4,52.0,29.95,East,94,4.0,7.0,95,0.06,,,0.21,Wunderground v.1.15,2013-05-05 06:48:00,
2013-05-05 02:54:00,53.3,51.6,29.95,East,96,5.0,7.0,94,0.07,,,0.22,Wunderground v.1.15,2013-05-05 06:54:00,
2013-05-05 03:00:00,53.2,51.8,29.95,ENE,78,5.0,5.0,95,0.12,,,0.24,Wunderground v.1.15,2013-05-05 07:00:00,
2013-05-05 03:06:00,53.1,51.7,29.94,ENE,75,5.0,8.0,95,0.12,,,0.25,Wunderground v.1.15,2013-05-05 07:06:00,
2013-05-05 03:12:00,53.1,51.7,29.94,NE,56,6.0,6.0,95,0.13,,,0.26,Wunderground v.1.15,2013-05-05 07:12:00,
2013-05-05 03:18:00,52.9,51.2,29.94,ENE,72,6.0,12.0,94,0.12,,,0.27,Wunderground v.1.15,2013-05-05 07:18:00,
2013-05-05 03:24:00,52.7,51.3,29.93,ENE,68,7.0,10.0,95,0.05,,,0.27,Wunderground v.1.15,2013-05-05 07:24:00,
2013-05-05 03:29:00,52.5,50.8,29.93,NE,56,7.0,10.0,94,0.04,,,0.28,Wunderground v.1.15,2013-05-05 07:29:00,
2013-05-05 03:34:00,52.4,50.7,29.93,East,94,7.0,10.0,94,0.04,,,0.28,Wunderground v.1.15,2013-05-05 07:34:00,
2013-05-05 03:40:00,52.2,50.5,29.93,ENE,68,8.0,8.0,94,0.04,,,0.28,Wunderground v.1.15,2013-05-05 07:40:00,
2013-05-05 03:46:00,52.2,50.5,29.93,ENE,61,7.0,8.0,94,0.00,,,0.28,Wunderground v.1.15,2013-05-05 07:46:00,
2013-05-05 03:52:00,52.1,50.4,29.92,ENE,75,6.0,7.0,94,0.00,,,0.28,Wunderground v.1.15,2013-05-05 07:52:00,
2013-05-05 03:57:00,52.0,50.3,29.92,ENE,65,6.0,7.0,94,0.00,,,0.28,Wunderground v.1.15,2013-05-05 07:57:00,
2013-05-05 04:03:00,51.9,50.2,29.92,ENE,63,6.0,7.0,94,0.00,,,0.28,Wunderground v.1.15,2013-05-05 08:03:00,
2013-05-05 04:09:00,51.8,49.8,29.92,ENE,72,6.0,9.0,93,0.00,,,0.28,Wunderground v.1.15,2013-05-05 08:09:00,
2013-05-05 04:15:00,51.7,49.7,29.92,ESE,110,6.0,9.0,93,0.00,,,0.28,Wunderground v.1.15,2013-05-05 08:15:00,
2013-05-05 04:20:00,51.6,49.6,29.92,ENE,68,6.0,6.0,93,0.00,,,0.28,Wunderground v.1.15,2013-05-05 08:20:00,
2013-05-05 04:25:00,51.5,49.5,29.91,ENE,57,6.0,9.0,93,0.00,,,0.28,Wunderground v.1.15,2013-05-05 08:25:00,
2013-05-05 04:31:00,51.3,49.3,29.91,ENE,72,6.0,7.0,93,0.00,,,0.29,Wunderground v.1.15,2013-05-05 08:31:00,
2013-05-05 04:37:00,51.1,49.4,29.91,East,85,6.0,8.0,94,0.00,,,0.29,Wunderground v.1.15,2013-05-05 08:37:00,
2013-05-05 04:43:00,51.0,49.3,29.91,ENE,59,5.0,6.0,94,0.05,,,0.30,Wunderground v.1.15,2013-05-05 08:43:00,
2013-05-05 04:49:00,50.9,49.2,29.90,ENE,69,5.0,7.0,94,0.08,,,0.31,Wunderground v.1.15,2013-05-05 08:49:00,
2013-05-05 04:54:00,50.9,49.2,29.90,NE,46,5.0,7.0,94,0.12,,,0.32,Wunderground v.1.15,2013-05-05 08:54:00,
2013-05-05 05:00:00,50.9,49.2,29.90,ENE,77,5.0,8.0,94,0.11,,,0.33,Wunderground v.1.15,2013-05-05 09:00:00,
2013-05-05 05:06:00,50.9,49.2,29.90,ENE,63,5.0,8.0,94,0.11,,,0.34,Wunderground v.1.15,2013-05-05 09:06:00,
2013-05-05 05:12:00,50.9,49.2,29.90,NE,50,4.0,6.0,94,0.09,,,0.35,Wunderground v.1.15,2013-05-05 09:12:00,
2013-05-05 05:17:00,51.0,49.3,29.91,ENE,65,5.0,7.0,94,0.09,,,0.36,Wunderground v.1.15,2013-05-05 09:17:00,
2013-05-05 05:23:00,51.0,49.3,29.90,NNE,29,6.0,7.0,94,0.08,,,0.37,Wunderground v.1.15,2013-05-05 09:23:00,
2013-05-05 05:29:00,50.9,49.2,29.90,NE,54,6.0,7.0,94,0.09,,,0.38,Wunderground v.1.15,2013-05-05 09:29:00,
2013-05-05 05:35:00,50.8,49.1,29.89,ENE,72,6.0,8.0,94,0.09,,,0.38,Wunderground v.1.15,2013-05-05 09:35:00,
2013-05-05 05:41:00,50.8,49.1,29.89,ENE,78,6.0,9.0,94,0.08,,,0.39,Wunderground v.1.15,2013-05-05 09:41:00,
2013-05-05 05:46:00,50.7,49.0,29.89,NE,41,6.0,12.0,94,0.10,,,0.40,Wunderground v.1.15,2013-05-05 09:46:00,
2013-05-05 05:52:00,50.7,49.0,29.89,ENE,68,7.0,7.0,94,0.06,,,0.40,Wunderground v.1.15,2013-05-05 09:52:00,
2013-05-05 05:58:00,50.7,49.0,29.88,ENE,62,7.0,12.0,94,0.05,,,0.41,Wunderground v.1.15,2013-05-05 09:58:00,
2013-05-05 06:03:00,50.7,49.0,29.88,ENE,69,7.0,9.0,94,0.05,,,0.41,Wunderground v.1.15,2013-05-05 10:03:00,
2013-05-05 06:09:00,50.7,49.0,29.88,ENE,57,7.0,11.0,94,0.04,,,0.42,Wunderground v.1.15,2013-05-05 10:09:00,
2013-05-05 06:15:00,50.7,49.0,29.89,ENE,67,6.0,11.0,94,0.04,,,0.42,Wunderground v.1.15,2013-05-05 10:15:00,
2013-05-05 06:20:00,50.8,49.1,29.88,East,92,6.0,8.0,94,0.04,,,0.42,Wunderground v.1.15,2013-05-05 10:20:00,
2013-05-05 06:26:00,50.8,49.1,29.89,East,80,7.0,11.0,94,0.00,,,0.42,Wunderground v.1.15,2013-05-05 10:26:00,
2013-05-05 06:32:00,50.8,48.8,29.89,NE,54,6.0,7.0,93,0.00,,,0.43,Wunderground v.1.15,2013-05-05 10:32:00,
2013-05-05 06:38:00,50.8,48.8,29.89,ENE,72,6.0,12.0,93,0.00,,,0.43,Wunderground v.1.15,2013-05-05 10:38:00,
2013-05-05 06:43:00,50.8,48.8,29.89,ENE,61,6.0,7.0,93,0.07,,,0.44,Wunderground v.1.15,2013-05-05 10:43:00,
2013-05-05 06:49:00,50.9,48.9,29.89,NE,56,7.0,7.0,93,0.06,,,0.44,Wunderground v.1.15,2013-05-05 10:49:00,
2013-05-05 06:55:00,50.9,48.9,29.89,ENE,60,7.0,11.0,93,0.05,,,0.45,Wunderground v.1.15,2013-05-05 10:55:00,
2013-05-05 07:00:00,50.8,48.8,29.89,NE,46,5.0,5.0,93,0.06,,,0.46,Wunderground v.1.15,2013-05-05 11:00:00,
2013-05-05 07:06:00,50.8,48.8,29.89,ENE,63,5.0,8.0,93,0.06,,,0.46,Wunderground v.1.15,2013-05-05 11:06:00,
2013-05-05 07:12:00,50.8,48.8,29.89,NE,50,6.0,10.0,93,0.06,,,0.47,Wunderground v.1.15,2013-05-05 11:12:00,
2013-05-05 07:17:00,50.9,48.9,29.89,NE,53,5.0,10.0,93,0.06,,,0.47,Wunderground v.1.15,2013-05-05 11:17:00,
2013-05-05 07:23:00,50.9,48.9,29.89,ENE,60,6.0,7.0,93,0.06,,,0.48,Wunderground v.1.15,2013-05-05 11:23:00,
2013-05-05 07:28:00,50.8,48.8,29.89,ENE,72,6.0,8.0,93,0.06,,,0.48,Wunderground v.1.15,2013-05-05 11:28:00,
2013-05-05 07:34:00,50.8,48.8,29.89,East,95,7.0,10.0,93,0.07,,,0.49,Wunderground v.1.15,2013-05-05 11:34:00,
2013-05-05 07:39:00,50.8,48.8,29.90,ENE,61,6.0,10.0,93,0.06,,,0.50,Wunderground v.1.15,2013-05-05 11:39:00,
2013-05-05 07:45:00,50.8,49.1,29.90,ENE,78,5.0,6.0,94,0.06,,,0.50,Wunderground v.1.15,2013-05-05 11:45:00,
2013-05-05 07:51:00,50.8,49.1,29.90,ENE,76,5.0,6.0,94,0.16,,,0.52,Wunderground v.1.15,2013-05-05 11:51:00,
2013-05-05 07:56:00,50.8,49.1,29.90,ENE,65,5.0,6.0,94,0.10,,,0.53,Wunderground v.1.15,2013-05-05 11:56:00,
2013-05-05 08:02:00,50.7,49.0,29.90,ENE,64,5.0,7.0,94,0.09,,,0.53,Wunderground v.1.15,2013-05-05 12:02:00,
2013-05-05 08:08:00,50.8,49.1,29.89,ENE,69,5.0,7.0,94,0.05,,,0.53,Wunderground v.1.15,2013-05-05 12:08:00,
2013-05-05 08:14:00,50.8,49.1,29.89,NE,52,5.0,9.0,94,0.00,,,0.53,Wunderground v.1.15,2013-05-05 12:14:00,
2013-05-05 08:19:00,50.7,49.0,29.88,ENE,63,5.0,9.0,94,0.00,,,0.54,Wunderground v.1.15,2013-05-05 12:19:00,
2013-05-05 08:25:00,50.7,49.0,29.89,ENE,62,6.0,7.0,94,0.00,,,0.54,Wunderground v.1.15,2013-05-05 12:25:00,
2013-05-05 08:30:00,50.8,49.1,29.88,ENE,76,6.0,13.0,94,0.06,,,0.55,Wunderground v.1.15,2013-05-05 12:30:00,
2013-05-05 08:36:00,50.8,49.1,29.88,NNE,23,7.0,13.0,94,0.06,,,0.55,Wunderground v.1.15,2013-05-05 12:36:00,
2013-05-05 08:41:00,50.8,49.1,29.88,NE,39,7.0,7.0,94,0.12,,,0.56,Wunderground v.1.15,2013-05-05 12:41:00,
2013-05-05 08:47:00,50.8,49.1,29.88,ENE,70,6.0,7.0,94,0.19,,,0.58,Wunderground v.1.15,2013-05-05 12:47:00,
2013-05-05 08:53:00,50.8,49.1,29.89,ENE,72,6.0,9.0,94,0.12,,,0.59,Wunderground v.1.15,2013-05-05 12:53:00,
2013-05-05 08:59:00,50.9,49.2,29.90,NE,50,7.0,10.0,94,0.21,,,0.61,Wunderground v.1.15,2013-05-05 12:59:00,
2013-05-05 09:04:00,50.9,49.2,29.90,East,91,6.0,9.0,94,0.15,,,0.63,Wunderground v.1.15,2013-05-05 13:04:00,
2013-05-05 09:10:00,50.9,49.2,29.90,ENE,57,5.0,5.0,94,0.16,,,0.64,Wunderground v.1.15,2013-05-05 13:10:00,
2013-05-05 09:16:00,50.9,49.2,29.90,NE,52,5.0,7.0,94,0.13,,,0.66,Wunderground v.1.15,2013-05-05 13:16:00,
2013-05-05 09:21:00,50.9,49.2,29.90,ENE,77,6.0,8.0,94,0.12,,,0.67,Wunderground v.1.15,2013-05-05 13:21:00,
2013-05-05 09:27:00,50.8,49.1,29.90,ENE,70,6.0,8.0,94,0.12,,,0.68,Wunderground v.1.15,2013-05-05 13:27:00,
2013-05-05 09:33:00,50.9,49.2,29.91,ENE,72,6.0,9.0,94,0.12,,,0.69,Wunderground v.1.15,2013-05-05 13:33:00,
2013-05-05 09:38:00,50.9,49.2,29.91,ENE,65,6.0,9.0,94,0.09,,,0.70,Wunderground v.1.15,2013-05-05 13:38:00,
2013-05-05 09:44:00,50.9,49.2,29.91,ENE,75,6.0,7.0,94,0.09,,,0.70,Wunderground v.1.15,2013-05-05 13:44:00,
2013-05-05 09:50:00,50.9,49.2,29.91,ENE,67,5.0,9.0,94,0.05,,,0.70,Wunderground v.1.15,2013-05-05 13:50:00,
2013-05-05 09:56:00,50.9,49.2,29.90,NE,54,6.0,10.0,94,0.04,,,0.71,Wunderground v.1.15,2013-05-05 13:56:00,
2013-05-05 10:01:00,50.8,49.1,29.90,ENE,64,5.0,6.0,94,0.08,,,0.72,Wunderground v.1.15,2013-05-05 14:01:00,
2013-05-05 10:07:00,50.8,49.1,29.91,East,90,4.0,7.0,94,0.14,,,0.73,Wunderground v.1.15,2013-05-05 14:07:00,
2013-05-05 10:13:00,50.8,49.1,29.91,ENE,65,4.0,6.0,94,0.09,,,0.74,Wunderground v.1.15,2013-05-05 14:13:00,
2013-05-05 10:18:00,50.9,49.2,29.91,East,92,4.0,6.0,94,0.07,,,0.75,Wunderground v.1.15,2013-05-05 14:18:00,
2013-05-05 10:24:00,51.0,49.3,29.91,ENE,76,5.0,7.0,94,0.07,,,0.75,Wunderground v.1.15,2013-05-05 14:24:00,
2013-05-05 10:30:00,51.1,49.4,29.91,East,84,6.0,6.0,94,0.05,,,0.75,Wunderground v.1.15,2013-05-05 14:30:00,
2013-05-05 10:35:00,51.2,49.5,29.91,East,86,6.0,10.0,94,0.00,,,0.75,Wunderground v.1.15,2013-05-05 14:35:00,
2013-05-05 10:41:00,51.4,49.4,29.91,ENE,77,6.0,7.0,93,0.00,,,0.75,Wunderground v.1.15,2013-05-05 14:41:00,
2013-05-05 10:47:00,51.4,49.4,29.92,ENE,61,6.0,7.0,93,0.00,,,0.75,Wunderground v.1.15,2013-05-05 14:47:00,
2013-05-05 10:53:00,51.4,49.2,29.92,ENE,77,7.0,8.0,92,0.00,,,0.75,Wunderground v.1.15,2013-05-05 14:53:00,
2013-05-05 10:58:00,51.3,49.1,29.91,NE,37,7.0,9.0,92,0.00,,,0.76,Wunderground v.1.15,2013-05-05 14:58:00,
2013-05-05 11:04:00,51.2,48.7,29.91,ENE,72,7.0,10.0,91,0.00,,,0.76,Wunderground v.1.15,2013-05-05 15:04:00,
2013-05-05 11:10:00,51.1,48.9,29.92,East,79,6.0,6.0,92,0.08,,,0.77,Wunderground v.1.15,2013-05-05 15:10:00,
2013-05-05 11:16:00,51.0,48.8,29.92,East,89,5.0,10.0,92,0.08,,,0.78,Wunderground v.1.15,2013-05-05 15:16:00,
2013-05-05 11:21:00,51.0,48.8,29.92,NE,36,6.0,6.0,92,0.07,,,0.78,Wunderground v.1.15,2013-05-05 15:21:00,
2013-05-05 11:27:00,50.8,48.6,29.92,ENE,67,5.0,8.0,92,0.16,,,0.80,Wunderground v.1.15,2013-05-05 15:27:00,
2013-05-05 11:33:00,50.7,48.7,29.93,ENE,60,5.0,9.0,93,0.16,,,0.81,Wunderground v.1.15,2013-05-05 15:33:00,
2013-05-05 11:38:00,50.6,48.7,29.93,ENE,73,6.0,9.0,93,0.12,,,0.82,Wunderground v.1.15,2013-05-05 15:38:00,
2013-05-05 11:44:00,50.6,48.4,29.93,ENE,61,6.0,9.0,92,0.06,,,0.83,Wunderground v.1.15,2013-05-05 15:44:00,
2013-05-05 11:50:00,50.5,48.3,29.93,ENE,72,6.0,6.0,92,0.06,,,0.83,Wunderground v.1.15,2013-05-05 15:50:00,
2013-05-05 11:56:00,50.4,48.5,29.93,ENE,75,6.0,7.0,93,0.06,,,0.84,Wunderground v.1.15,2013-05-05 15:56:00,
2013-05-05 12:01:00,50.3,48.4,29.93,ENE,71,6.0,6.0,93,0.08,,,0.85,Wunderground v.1.15,2013-05-05 16:01:00,
2013-05-05 12:07:00,50.1,48.2,29.93,NE,54,6.0,9.0,93,0.11,,,0.86,Wunderground v.1.15,2013-05-05 16:07:00,
2013-05-05 12:13:00,50.0,48.1,29.93,ENE,73,5.0,8.0,93,0.10,,,0.87,Wunderground v.1.15,2013-05-05 16:13:00,
2013-05-05 12:19:00,49.9,48.0,29.93,ENE,65,8.0,14.0,93,0.09,,,0.87,Wunderground v.1.15,2013-05-05 16:19:00,
2013-05-05 12:24:00,49.8,47.9,29.93,ENE,68,9.0,12.0,93,0.05,,,0.88,Wunderground v.1.15,2013-05-05 16:24:00,
2013-05-05 12:30:00,49.6,47.7,29.93,ENE,62,8.0,8.0,93,0.05,,,0.88,Wunderground v.1.15,2013-05-05 16:30:00,
2013-05-05 12:36:00,49.4,47.5,29.93,ENE,73,8.0,10.0,93,0.13,,,0.90,Wunderground v.1.15,2013-05-05 16:36:00,
2013-05-05 12:42:00,49.2,47.5,29.93,East,91,8.0,10.0,94,0.12,,,0.91,Wunderground v.1.15,2013-05-05 16:42:00,
2013-05-05 12:47:00,49.0,47.3,29.93,NE,52,8.0,10.0,94,0.11,,,0.92,Wunderground v.1.15,2013-05-05 16:47:00,
2013-05-05 12:52:00,48.8,47.2,29.93,East,87,8.0,12.0,94,0.16,,,0.93,Wunderground v.1.15,2013-05-05 16:52:00,
2013-05-05 12:58:00,48.4,46.8,29.93,NNE,27,8.0,12.0,94,0.20,,,0.95,Wunderground v.1.15,2013-05-05 16:58:00,
2013-05-05 13:04:00,48.1,46.5,29.94,East,92,8.0,13.0,94,0.15,,,0.96,Wunderground v.1.15,2013-05-05 17:04:00,
2013-05-05 13:10:00,47.8,45.9,29.94,ENE,75,8.0,11.0,93,0.21,,,0.98,Wunderground v.1.15,2013-05-05 17:10:00,
2013-05-05 13:15:00,47.5,45.6,29.94,ENE,73,8.0,11.0,93,0.15,,,0.99,Wunderground v.1.15,2013-05-05 17:15:00,
2013-05-05 13:21:00,47.3,45.4,29.94,ENE,65,9.0,9.0,93,0.15,,,1.01,Wunderground v.1.15,2013-05-05 17:21:00,
2013-05-05 13:27:00,47.3,45.7,29.93,ENE,75,8.0,9.0,94,0.13,,,1.02,Wunderground v.1.15,2013-05-05 17:27:00,
2013-05-05 13:33:00,47.5,45.9,29.93,ENE,63,8.0,9.0,94,0.09,,,1.03,Wunderground v.1.15,2013-05-05 17:33:00,
2013-05-05 13:39:00,47.6,46.0,29.93,ENE,58,8.0,14.0,94,0.10,,,1.03,Wunderground v.1.15,2013-05-05 17:39:00,
2013-05-05 13:45:00,47.8,46.4,29.93,ENE,73,8.0,9.0,95,0.10,,,1.04,Wunderground v.1.15,2013-05-05 17:45:00,
2013-05-05 13:50:00,47.8,46.2,29.93,NE,56,8.0,8.0,94,0.05,,,1.04,Wunderground v.1.15,2013-05-05 17:50:00,
2013-05-05 13:55:00,47.7,46.1,29.94,ENE,59,8.0,11.0,94,0.05,,,1.05,Wunderground v.1.15,2013-05-05 17:55:00,
2013-05-05 14:00:00,47.6,46.0,29.94,East,79,7.0,7.0,94,0.17,,,1.07,Wunderground v.1.15,2013-05-05 18:00:00,
2013-05-05 14:06:00,47.5,45.9,29.94,ENE,62,6.0,7.0,94,0.18,,,1.08,Wunderground v.1.15,2013-05-05 18:06:00,
2013-05-05 14:12:00,47.3,45.7,29.94,ENE,68,6.0,8.0,94,0.14,,,1.10,Wunderground v.1.15,2013-05-05 18:12:00,
2013-05-05 14:18:00,47.2,45.8,29.94,ENE,72,6.0,8.0,95,0.18,,,1.12,Wunderground v.1.15,2013-05-05 18:18:00,
2013-05-05 14:23:00,47.1,45.7,29.94,ENE,66,6.0,8.0,95,0.14,,,1.13,Wunderground v.1.15,2013-05-05 18:23:00,
2013-05-05 14:29:00,47.0,45.6,29.93,ENE,64,5.0,8.0,95,0.18,,,1.15,Wunderground v.1.15,2013-05-05 18:29:00,
2013-05-05 14:35:00,47.0,45.6,29.93,ENE,65,5.0,7.0,95,0.17,,,1.16,Wunderground v.1.15,2013-05-05 18:35:00,
2013-05-05 14:41:00,46.9,45.5,29.93,ENE,63,4.0,4.0,95,0.24,,,1.19,Wunderground v.1.15,2013-05-05 18:41:00,
2013-05-05 14:46:00,46.9,45.5,29.93,ENE,71,4.0,8.0,95,0.17,,,1.20,Wunderground v.1.15,2013-05-05 18:46:00,
2013-05-05 14:52:00,46.9,45.5,29.93,ENE,68,4.0,6.0,95,0.18,,,1.22,Wunderground v.1.15,2013-05-05 18:52:00,
2013-05-05 14:57:00,46.9,45.5,29.93,ENE,72,4.0,6.0,95,0.27,,,1.24,Wunderground v.1.15,2013-05-05 18:57:00,
2013-05-05 15:03:00,46.9,45.8,29.93,East,87,3.0,4.0,96,0.18,,,1.26,Wunderground v.1.15,2013-05-05 19:03:00,
2013-05-05 15:08:00,47.0,45.9,29.93,ENE,63,4.0,8.0,96,0.17,,,1.27,Wunderground v.1.15,2013-05-05 19:08:00,
2013-05-05 15:14:00,47.1,46.0,29.93,NNE,18,6.0,9.0,96,0.15,,,1.29,Wunderground v.1.15,2013-05-05 19:14:00,
2013-05-05 15:20:00,47.2,46.1,29.93,ENE,69,5.0,10.0,96,0.08,,,1.29,Wunderground v.1.15,2013-05-05 19:20:00,
2013-05-05 15:25:00,47.1,45.7,29.93,ENE,69,6.0,10.0,95,0.08,,,1.30,Wunderground v.1.15,2013-05-05 19:25:00,
2013-05-05 15:31:00,47.1,45.7,29.92,ENE,63,6.0,9.0,95,0.10,,,1.31,Wunderground v.1.15,2013-05-05 19:31:00,
2013-05-05 15:37:00,47.2,45.8,29.92,NNE,22,6.0,9.0,95,0.06,,,1.31,Wunderground v.1.15,2013-05-05 19:37:00,
2013-05-05 15:42:00,47.3,45.9,29.92,ENE,70,6.0,9.0,95,0.04,,,1.31,Wunderground v.1.15,2013-05-05 19:42:00,
2013-05-05 15:48:00,47.5,46.1,29.92,ENE,62,5.0,9.0,95,0.04,,,1.32,Wunderground v.1.15,2013-05-05 19:48:00,
2013-05-05 15:53:00,47.5,46.1,29.92,ENE,60,4.0,5.0,95,0.04,,,1.32,Wunderground v.1.15,2013-05-05 19:53:00,
2013-05-05 15:59:00,47.4,45.8,29.91,East,91,6.0,9.0,94,0.04,,,1.32,Wunderground v.1.15,2013-05-05 19:59:00,
2013-05-05 16:05:00,47.4,45.8,29.91,ENE,70,7.0,9.0,94,0.00,,,1.33,Wunderground v.1.15,2013-05-05 20:05:00,
2013-05-05 16:11:00,47.4,46.0,29.91,East,85,7.0,7.0,95,0.08,,,1.34,Wunderground v.1.15,2013-05-05 20:11:00,
2013-05-05 16:16:00,47.4,46.0,29.91,ENE,57,5.0,7.0,95,0.15,,,1.36,Wunderground v.1.15,2013-05-05 20:16:00,
2013-05-05 16:22:00,47.3,45.9,29.91,East,80,6.0,8.0,95,0.17,,,1.37,Wunderground v.1.15,2013-05-05 20:22:00,
2013-05-05 16:28:00,47.3,45.9,29.91,ENE,70,6.0,8.0,95,0.12,,,1.38,Wunderground v.1.15,2013-05-05 20:28:00,
2013-05-05 16:34:00,47.5,46.4,29.91,ENE,67,6.0,9.0,96,0.08,,,1.39,Wunderground v.1.15,2013-05-05 20:34:00,
2013-05-05 16:39:00,47.5,46.1,29.90,ENE,64,6.0,9.0,95,0.08,,,1.39,Wunderground v.1.15,2013-05-05 20:39:00,
2013-05-05 16:45:00,47.6,46.2,29.90,ENE,70,6.0,8.0,95,0.06,,,1.40,Wunderground v.1.15,2013-05-05 20:45:00,
2013-05-05 16:51:00,47.6,46.2,29.89,East,82,6.0,7.0,95,0.07,,,1.41,Wunderground v.1.15,2013-05-05 20:51:00,
2013-05-05 16:56:00,47.7,46.3,29.89,NE,53,6.0,8.0,95,0.09,,,1.41,Wunderground v.1.15,2013-05-05 20:56:00,
2013-05-05 17:02:00,47.7,46.6,29.89,East,100,6.0,9.0,96,0.15,,,1.43,Wunderground v.1.15,2013-05-05 21:02:00,
2013-05-05 17:07:00,47.8,46.7,29.89,East,86,6.0,9.0,96,0.18,,,1.44,Wunderground v.1.15,2013-05-05 21:07:00,
2013-05-05 17:13:00,47.8,46.7,29.89,NE,39,5.0,6.0,96,0.15,,,1.46,Wunderground v.1.15,2013-05-05 21:13:00,
2013-05-05 17:19:00,47.9,46.8,29.89,NE,56,6.0,10.0,96,0.11,,,1.47,Wunderground v.1.15,2013-05-05 21:19:00,
2013-05-05 17:24:00,48.0,46.9,29.89,East,82,6.0,8.0,96,0.15,,,1.48,Wunderground v.1.15,2013-05-05 21:24:00,
2013-05-05 17:30:00,48.2,47.1,29.89,ENE,70,7.0,7.0,96,0.15,,,1.50,Wunderground v.1.15,2013-05-05 21:30:00,
2013-05-05 17:36:00,48.4,47.3,29.90,ENE,70,6.0,9.0,96,0.08,,,1.50,Wunderground v.1.15,2013-05-05 21:36:00,
2013-05-05 17:41:00,48.5,47.1,29.90,ENE,72,6.0,9.0,95,0.06,,,1.51,Wunderground v.1.15,2013-05-05 21:41:00,
2013-05-05 17:47:00,48.6,47.2,29.90,ENE,65,7.0,9.0,95,0.12,,,1.52,Wunderground v.1.15,2013-05-05 21:47:00,
2013-05-05 17:53:00,48.7,47.3,29.90,East,95,7.0,10.0,95,0.19,,,1.54,Wunderground v.1.15,2013-05-05 21:53:00,
2013-05-05 17:59:00,48.8,47.4,29.90,East,84,7.0,10.0,95,0.13,,,1.56,Wunderground v.1.15,2013-05-05 21:59:00,
2013-05-05 18:05:00,48.9,47.5,29.89,ENE,76,7.0,11.0,95,0.09,,,1.56,Wunderground v.1.15,2013-05-05 22:05:00,
2013-05-05 18:10:00,49.0,47.6,29.89,ENE,78,8.0,8.0,95,0.06,,,1.57,Wunderground v.1.15,2013-05-05 22:10:00,
2013-05-05 18:16:00,49.1,47.7,29.89,East,94,7.0,8.0,95,0.06,,,1.57,Wunderground v.1.15,2013-05-05 22:16:00,
2013-05-05 18:22:00,49.1,47.7,29.89,ENE,64,7.0,7.0,95,0.04,,,1.57,Wunderground v.1.15,2013-05-05 22:22:00,
2013-05-05 18:28:00,49.2,47.8,29.89,East,79,6.0,8.0,95,0.04,,,1.58,Wunderground v.1.15,2013-05-05 22:28:00,
2013-05-05 18:34:00,49.3,47.9,29.89,East,93,5.0,6.0,95,0.04,,,1.58,Wunderground v.1.15,2013-05-05 22:34:00,
2013-05-05 18:40:00,49.4,48.0,29.89,NE,56,4.0,4.0,95,0.04,,,1.58,Wunderground v.1.15,2013-05-05 22:40:00,
2013-05-05 18:45:00,49.5,48.1,29.89,NE,41,5.0,7.0,95,0.04,,,1.59,Wunderground v.1.15,2013-05-05 22:45:00,
2013-05-05 18:51:00,49.6,48.2,29.89,ENE,57,6.0,6.0,95,0.04,,,1.59,Wunderground v.1.15,2013-05-05 22:51:00,
2013-05-05 18:56:00,49.7,48.3,29.89,NE,50,6.0,7.0,95,0.04,,,1.59,Wunderground v.1.15,2013-05-05 22:56:00,
2013-05-05 19:02:00,49.8,48.4,29.89,NE,43,5.0,6.0,95,0.00,,,1.59,Wunderground v.1.15,2013-05-05 23:02:00,
2013-05-05 19:08:00,50.0,48.6,29.89,ENE,66,5.0,8.0,95,0.00,,,1.59,Wunderground v.1.15,2013-05-05 23:08:00,
2013-05-05 19:13:00,50.1,48.7,29.88,ENE,67,5.0,6.0,95,0.00,,,1.60,Wunderground v.1.15,2013-05-05 23:13:00,
2013-05-05 19:19:00,50.1,48.7,29.89,ENE,68,4.0,9.0,95,0.00,,,1.60,Wunderground v.1.15,2013-05-05 23:19:00,
2013-05-05 19:25:00,50.2,49.1,29.89,ENE,68,5.0,12.0,96,0.00,,,1.60,Wunderground v.1.15,2013-05-05 23:25:00,
2013-05-05 19:30:00,50.3,49.2,29.89,East,79,6.0,6.0,96,0.00,,,1.60,Wunderground v.1.15,2013-05-05 23:30:00,
2013-05-05 19:36:00,50.4,49.3,29.89,ENE,63,6.0,7.0,96,0.00,,,1.61,Wunderground v.1.15,2013-05-05 23:36:00,
2013-05-05 19:41:00,50.4,49.3,29.89,ENE,61,6.0,7.0,96,0.00,,,1.61,Wunderground v.1.15,2013-05-05 23:41:00,
2013-05-05 19:47:00,50.5,49.4,29.90,East,84,6.0,8.0,96,0.00,,,1.61,Wunderground v.1.15,2013-05-05 23:47:00,
2013-05-05 19:53:00,50.6,49.8,29.90,ENE,76,6.0,7.0,97,0.00,,,1.61,Wunderground v.1.15,2013-05-05 23:53:00,
2013-05-05 19:58:00,50.7,49.9,29.90,ENE,60,6.0,9.0,97,0.00,,,1.62,Wunderground v.1.15,2013-05-05 23:58:00,
2013-05-05 20:03:00,50.7,49.9,29.90,ENE,65,6.0,8.0,97,0.00,,,1.62,Wunderground v.1.15,2013-05-06 00:03:00,
2013-05-05 20:09:00,50.8,50.0,29.90,East,98,6.0,8.0,97,0.18,,,1.64,Wunderground v.1.15,2013-05-06 00:09:00,
2013-05-05 20:15:00,50.8,50.0,29.90,ENE,75,5.0,7.0,97,0.11,,,1.65,Wunderground v.1.15,2013-05-06 00:15:00,
2013-05-05 20:21:00,50.8,50.0,29.90,NE,54,5.0,5.0,97,0.10,,,1.66,Wunderground v.1.15,2013-05-06 00:21:00,
2013-05-05 20:26:00,50.9,50.1,29.90,ENE,64,5.0,5.0,97,0.05,,,1.66,Wunderground v.1.15,2013-05-06 00:26:00,
2013-05-05 20:32:00,51.0,50.2,29.90,ENE,75,4.0,8.0,97,0.00,,,1.66,Wunderground v.1.15,2013-05-06 00:32:00,
2013-05-05 20:38:00,51.0,50.2,29.90,NE,52,3.0,8.0,97,0.00,,,1.67,Wunderground v.1.15,2013-05-06 00:38:00,
2013-05-05 20:44:00,51.1,50.6,29.90,NE,54,3.0,6.0,98,0.00,,,1.67,Wunderground v.1.15,2013-05-06 00:44:00,
2013-05-05 20:50:00,51.1,50.3,29.90,NE,44,3.0,3.0,97,0.00,,,1.67,Wunderground v.1.15,2013-05-06 00:50:00,
2013-05-05 20:56:00,51.2,50.7,29.90,NE,49,4.0,7.0,98,0.00,,,1.67,Wunderground v.1.15,2013-05-06 00:56:00,
2013-05-05 21:01:00,51.2,50.7,29.90,NE,50,4.0,5.0,98,0.00,,,1.68,Wunderground v.1.15,2013-05-06 01:01:00,
2013-05-05 21:07:00,51.2,50.7,29.89,ENE,62,5.0,7.0,98,0.00,,,1.68,Wunderground v.1.15,2013-05-06 01:07:00,
2013-05-05 21:12:00,51.3,50.8,29.90,NE,34,5.0,8.0,98,0.06,,,1.69,Wunderground v.1.15,2013-05-06 01:12:00,
2013-05-05 21:18:00,51.4,50.9,29.90,East,85,5.0,8.0,98,0.15,,,1.71,Wunderground v.1.15,2013-05-06 01:18:00,
2013-05-05 21:24:00,51.4,50.9,29.90,ENE,61,5.0,7.0,98,0.15,,,1.72,Wunderground v.1.15,2013-05-06 01:24:00,
2013-05-05 21:29:00,51.5,51.0,29.90,NE,46,5.0,7.0,98,0.13,,,1.73,Wunderground v.1.15,2013-05-06 01:29:00,
2013-05-05 21:35:00,51.6,51.1,29.90,ENE,62,6.0,7.0,98,0.09,,,1.74,Wunderground v.1.15,2013-05-06 01:35:00,
2013-05-05 21:41:00,51.7,51.2,29.90,East,79,5.0,6.0,98,0.10,,,1.75,Wunderground v.1.15,2013-05-06 01:41:00,
2013-05-05 21:46:00,51.8,51.3,29.90,NNE,30,6.0,9.0,98,0.09,,,1.76,Wunderground v.1.15,2013-05-06 01:46:00,
2013-05-05 21:52:00,52.0,51.2,29.90,East,80,6.0,6.0,97,0.15,,,1.77,Wunderground v.1.15,2013-05-06 01:52:00,
2013-05-05 21:58:00,52.0,51.2,29.90,ENE,76,6.0,14.0,97,0.07,,,1.77,Wunderground v.1.15,2013-05-06 01:58:00,
2013-05-05 22:03:00,52.1,51.3,29.90,NE,46,7.0,7.0,97,0.07,,,1.78,Wunderground v.1.15,2013-05-06 02:03:00,
2013-05-05 22:09:00,52.2,51.4,29.90,ENE,70,7.0,9.0,97,0.10,,,1.79,Wunderground v.1.15,2013-05-06 02:09:00,
2013-05-05 22:14:00,52.2,51.4,29.91,East,84,7.0,10.0,97,0.06,,,1.79,Wunderground v.1.15,2013-05-06 02:14:00,
2013-05-05 22:20:00,52.2,51.4,29.91,ENE,74,7.0,7.0,97,0.04,,,1.79,Wunderground v.1.15,2013-05-06 02:20:00,
2013-05-05 22:26:00,52.2,51.4,29.91,ENE,71,7.0,9.0,97,0.00,,,1.80,Wunderground v.1.15,2013-05-06 02:26:00,
2013-05-05 22:32:00,52.3,51.8,29.91,ENE,63,6.0,6.0,98,0.38,,,1.82,Wunderground v.1.15,2013-05-06 02:32:00,
2013-05-05 22:37:00,52.3,51.8,29.91,ENE,69,5.0,7.0,98,0.27,,,1.84,Wunderground v.1.15,2013-05-06 02:37:00,
2013-05-05 22:43:00,52.3,51.8,29.91,ENE,57,4.0,7.0,98,0.15,,,1.85,Wunderground v.1.15,2013-05-06 02:43:00,
2013-05-05 22:49:00,52.3,51.8,29.91,ENE,63,4.0,7.0,98,0.06,,,1.85,Wunderground v.1.15,2013-05-06 02:49:00,
2013-05-05 22:55:00,52.4,51.9,29.91,ENE,59,5.0,6.0,98,0.04,,,1.85,Wunderground v.1.15,2013-05-06 02:55:00,
2013-05-05 23:00:00,52.5,52.0,29.91,ESE,105,5.0,8.0,98,0.00,,,1.86,Wunderground v.1.15,2013-05-06 03:00:00,
2013-05-05 23:06:00,52.5,52.0,29.91,NE,50,5.0,9.0,98,0.00,,,1.86,Wunderground v.1.15,2013-05-06 03:06:00,
2013-05-05 23:12:00,52.5,52.0,29.90,ENE,60,6.0,6.0,98,0.05,,,1.87,Wunderground v.1.15,2013-05-06 03:12:00,
2013-05-05 23:18:00,52.6,52.1,29.90,ENE,69,4.0,6.0,98,0.05,,,1.87,Wunderground v.1.15,2013-05-06 03:18:00,
2013-05-05 23:23:00,52.7,52.2,29.90,NE,56,5.0,8.0,98,0.05,,,1.87,Wunderground v.1.15,2013-05-06 03:23:00,
2013-05-05 23:29:00,52.7,52.2,29.89,ENE,65,6.0,8.0,98,0.00,,,1.87,Wunderground v.1.15,2013-05-06 03:29:00,
2013-05-05 23:35:00,52.8,52.3,29.89,East,80,6.0,9.0,98,0.00,,,1.87,Wunderground v.1.15,2013-05-06 03:35:00,
2013-05-05 23:41:00,53.0,52.5,29.89,East,95,7.0,7.0,98,0.00,,,1.88,Wunderground v.1.15,2013-05-06 03:41:00,
2013-05-05 23:46:00,53.1,52.3,29.89,ENE,61,6.0,10.0,97,0.00,,,1.88,Wunderground v.1.15,2013-05-06 03:46:00,
2013-05-05 23:52:00,53.1,52.3,29.89,ENE,57,4.0,10.0,97,0.05,,,1.89,Wunderground v.1.15,2013-05-06 03:52:00,
2013-05-05 23:57:00,53.2,52.4,29.89,NE,50,5.0,10.0,97,0.05,,,1.89,Wunderground v.1.15,2013-05-06 03:57:00,